OBJECT D

Satellite information

Favourite Embed

Satellite Type and Status

UNKNOWNIN ORBIT

Key statistics

Satellite OBJECT D at a glance.

Uptime

375

Days in orbit

Revolutions

≈ 15.2

Per day

Orbit

SSO

Sun Synchronous Orbit

Inclination

97.6

Latest

Satellite identification and parameters

Extended collection of information and parameters for OBJECT D.

Object identification

Identified? True

Debris? False

Object name: OBJECT D

International designator: 2024-153D

Object number (NORAD): 60748

Object ID (CCSDS): 60748

Country: PEOPLES REPUBLIC OF CHINA (PRC)

Current information (Y/N): Y

RCS size: MEDIUM

Orbital parameters

Period: 94.761 minutes

Inclination: 97.6491 deg

SMA: 6885.152 km

Apoapsis: 511.779 km

Periapsis: 502.254 km

RAAN: 15.8181 deg

Eccentricy: 0.00069171

Argument of periapsis: 118.2598 deg

Mean anomaly: 241.9335 deg

Mean motion: 15.19611212 rev/day

Mean motion (dot): 0.00001419 rev/day2

B* drag term: 0.000069989927 1/REarth

Two-line elements (TLE)

Creation date: Sept. 5, 2025, 7:38 p.m.

Reference frame: TEME

Reference center: EARTH

Epoch: Sept. 5, 2025, 2:10 p.m. UTC

TLE line 0: 0 OBJECT D

TLE line 1: 1 60748U 24153D 25248.59051895 .00001419 00000-0 69990-4 0 9995

TLE line 2: 2 60748 97.6491 15.8181 0006917 118.2598 241.9335 15.19611212 56539

Live tracking on map

Real-time ground track for satellite OBJECT D.

In-orbit conjunctions

There are no conjunctions computed for OBJECT D, at the moment. Check back to stay up to date, as we update our databases every day.

Go to all conjunctions

Associated space launch

Carried 6 satellites to sun synchronous orbit: * Yunyao-1 15 to 17 * Jitianxing A-03 * Suxing 1-01 * Tianfu Gaofen 2

OBJECT D was lifted into orbit during the mission ‘Ceres-1S | 6 satellites’, on board a Ceres-1S space rocket.

The launch took place on Aug. 29, 2024, 5:22 a.m. from Haiyang Spaceport.

For more information about the launch, click the button.

Launch to space Ceres-1S | 6 satellites
Ceres-1S | 6 satellites

Agency: N/A

Status: Launch Successful

Launch date: Aug. 29, 2024, 5:22 a.m. UTC

Rocket: Ceres-1S

Launch pad: Haiyang Spaceport

Location: Sea Launch

...

Latest news about this satellite

News about space launch
Polaris Dawn on hold; SpaceX booster fails on landing

Another busy week of spaceflight activities contained a landing failure of a Falcon 9 booster for the first time in over three years. Looking forward, Falcon 9 could launch up to five launches this week, including the Polaris Dawn mission, whose private c...

News about space launch
Galactic Energy launches six satellites with third sea launch

HELSINKI — China’s Galactic Energy conducted its third Ceres-1 solid rocket sea launch Thursday, successfully sending six satellites into orbit. The Ceres-1 lifted off from a transport erector launcher on […]

News about space launch
Launch Roundup: Falcon Heavy returns with GOES-U, Firefly Alpha launch attempt

Following a week in which Tropical Storm Alberto brought high seas, wind, and rain-related delays to the launch schedule in Florida, SpaceX managed to get back on track this week with launches from all three of the active Falcon launch pads, including a F...


Newsletter sign-up

Weekly statistics, charts and insights to help you stay on top of the space industry.